[[{"header":{"parameterUnit":"m.s-1","parameterCategory":1,"la1":30.2991,"la2":30.254,"lo1":-89.0895,"lo2":-89.0444,"dy":0.0017,"dx":0.0017,"nx":28,"ny":28,"refTime":"2025-07-06T21:00:00:Z","depth":0,"parameterNumber":2,"parameterNumberName":"U-component_of_WINDS"},"data":[0,0,0,0,0,0,0,0,0,0,0,0,0,0,0,0,0,0,0,0,0,0,0,0,0,0,0,0,0,0,0,0,0,0,0,0,0,0,0,0,0,0,0,0,0,0,0,0,0,0,0,0,0,0,0,0,0,0,1.6652,1.6653,0,1.6799,1.6801,1.6802,1.6838,1.6837,1.6836,1.6835,1.6991,1.6996,1.7001,0,0,0,0,0,0,0,0,0,0,0,0,0,1.6405,1.6409,1.6652,1.6653,1.6655,1.6799,1.6801,1.6803,1.6838,1.6837,1.6836,1.6835,1.6989,1.6995,1.7002,0,0,0,0,0,0,0,0,0,0,0,0,0,1.6528,1.6411,1.6651,1.669,1.6695,1.6798,1.6801,1.6803,1.6838,1.6837,1.6835,1.6834,1.6987,1.6995,1.7002,1.7079,0,0,1.7026,1.7029,0,0,0,0,0,0,0,0,1.6521,1.6537,1.6683,1.6688,1.6693,1.6798,1.6771,1.6896,1.6839,1.6784,1.6835,1.6833,1.6929,1.6941,1.6972,1.7086,1.7093,1.7026,1.7031,1.7034,1.7036,0,0,0,0,0,0,0,1.6513,1.6531,1.671,1.6685,1.6691,1.6702,1.6717,1.6795,1.6863,1.6789,1.6792,1.6808,1.6931,1.6965,1.6976,1.7095,1.7026,1.7033,1.7038,1.7041,1.728,1.7282,0,0,0,0,0,0,1.6497,1.6524,1.6705,1.6715,1.6602,1.6707,1.6725,1.6766,1.6862,1.6875,1.681,1.6809,1.6952,1.6967,1.6982,1.7077,1.7034,1.7041,1.7046,1.7278,1.7281,1.7283,0,0,0,0,0,0,1.6491,1.6513,1.6699,1.662,1.6645,1.6713,1.6759,1.677,1.6803,1.6878,1.6891,1.6831,1.6952,1.6971,1.7054,1.7083,1.7045,1.7052,1.7276,1.7279,1.7282,1.727,0,0,0,0,0,0,1.6484,1.651,1.6539,1.662,1.6649,1.6768,1.6761,1.6774,1.6816,1.6817,1.6901,1.6914,1.6952,1.7043,1.7062,1.7093,1.7058,1.7274,1.7278,1.7281,1.7268,1.7272,1.7275,0,0,0,0,0,1.6475,1.6531,1.6541,1.6562,1.6686,1.677,1.6786,1.6828,1.6818,1.6848,1.6896,1.6911,1.7077,1.7051,1.7073,1.7107,1.7272,1.7277,1.728,1.7266,1.7271,1.7275,0,0,0,0,0,0,1.6454,1.6543,1.6554,1.6638,1.6696,1.6776,1.6815,1.6831,1.6895,1.6894,1.6944,1.6963,1.7043,1.7083,1.7053,1.7186,1.7175,1.7183,1.7156,1.7162,1.7165,1.7154,1.7064,0,0,0,0,0,1.6458,1.6518,1.6593,1.666,1.6688,1.6746,1.6784,1.6811,1.6874,1.6899,1.6953,1.7015,1.7081,1.7124,1.7189,1.7274,1.7293,1.7308,1.7312,1.7314,1.7321,1.7369,1.7377,1.7296,1.7296,1.7296,0,0,1.6469,1.6525,1.656,1.6657,1.6705,1.6766,1.6767,1.6832,1.6878,1.691,1.6991,1.7033,1.7105,1.7189,1.723,1.7226,1.7348,1.732,1.7321,1.7327,1.7374,1.7382,1.7389,1.7299,1.7298,1.7298,0,0,1.6521,1.6569,1.6629,1.6677,1.6749,1.6787,1.6802,1.6879,1.6908,1.699,1.7014,1.7071,1.7184,1.7234,1.7274,1.7344,1.736,1.7364,1.7383,1.7429,1.7435,1.7441,1.7466,1.7474,1.737,1.737,1.737,0,1.6525,1.6617,1.6659,1.6722,1.6764,1.6793,1.6856,1.6901,1.6991,1.702,1.7014,1.7156,1.7207,1.7303,1.7319,1.7351,1.737,1.7354,1.7431,1.7437,1.7443,1.7467,1.7476,1.737,1.737,1.737,1.737,0,1.662,1.6683,1.6724,1.6808,1.6855,1.6917,1.6969,1.7012,1.7034,1.7074,1.7157,1.7219,1.7296,1.7322,1.7345,1.7421,1.7417,1.742,1.741,1.745,1.7473,1.7483,1.737,1.737,1.737,1.737,0,0,1.6662,1.6767,1.6781,1.682,1.6901,1.6952,1.7016,1.709,1.7126,1.7187,1.7243,1.7337,1.734,1.7386,1.7416,1.7456,1.7507,1.7455,1.7457,1.7462,1.7595,1.7591,1.7601,1.7518,1.752,1.7522,1.7589,0,1.6723,1.6837,1.6875,1.697,1.703,1.7058,1.7114,1.7171,1.7209,1.7267,1.731,1.7375,1.7375,1.7403,1.7444,1.7492,1.7534,1.7488,1.7571,1.7574,1.7552,1.7614,1.7611,1.7671,1.7598,1.76,1.7601,0,1.6809,1.6869,1.697,1.7043,1.707,1.7119,1.719,1.7244,1.7309,1.7334,1.7384,1.7411,1.748,1.7465,1.7562,1.7529,1.7566,1.7595,1.7598,1.7608,1.7589,1.7625,1.7691,1.77,1.7616,1.7615,1.7613,0,1.6829,1.6936,1.7009,1.7042,1.7129,1.7163,1.7202,1.7265,1.7307,1.737,1.7398,1.7468,1.7507,1.7561,1.7606,1.7591,1.7699,1.7688,1.7723,1.7721,1.7744,1.7742,1.7817,1.7768,1.7768,1.7768,1.7767,0,1.6893,1.6953,1.7019,1.7065,1.7133,1.7178,1.7245,1.7285,1.7341,1.7396,1.7426,1.7477,1.7533,1.7591,1.7627,1.7702,1.772,1.7742,1.7751,1.774,1.7737,1.7764,1.7761,1.777,1.777,1.7769,1.7769,0,1.6927,1.6974,1.7056,1.7131,1.7152,1.7199,1.7265,1.731,1.7349,1.7418,1.7437,1.7499,1.7569,1.7619,1.7711,1.7735,1.7815,1.7824,1.7792,1.7797,1.7828,1.7824,1.7924,1.7939,1.7879,1.788,1.788,0,1.6964,1.7011,1.7091,1.7129,1.7166,1.7227,1.727,1.7316,1.7359,1.7436,1.7473,1.7545,1.7605,1.7716,1.777,1.784,1.7851,1.7881,1.7862,1.7848,1.7851,1.7847,1.7852,1.7884,1.7884,1.7884,1.7885,0,1.7025,1.7046,1.7105,1.7173,1.7222,1.7278,1.7334,1.7363,1.742,1.7467,1.7538,1.7584,1.7676,1.7748,1.7823,1.7864,1.7884,1.789,1.7902,1.789,1.787,1.7881,1.78,1.7888,1.7887,1.7887,1.7887,1.7887,1.7062,1.7105,1.7167,1.7232,1.7279,1.7331,1.7377,1.7421,1.7481,1.7558,1.7582,1.7656,1.7721,1.7823,1.7865,1.7925,1.7923,1.794,1.7945,1.7948,1.7947,1.786,1.7939,1.7939,1.7939,1.7939,1.7939,0,1.7125,1.7166,1.7225,1.7302,1.7353,1.7366,1.7429,1.7471,1.7535,1.7593,1.765,1.7732,1.7801,1.7861,1.7933,1.7969,1.798,1.7986,1.7984,1.7993,1.7945,1.7927,1.7976,1.7976,1.7976,1.7976,1.7976,1.7976,1.7163,1.7235,1.7263,1.736,1.7401,1.7472,1.7507,1.7555,1.7601,1.7691,1.7748,1.7785,1.7844,1.792,1.7984,1.8,1.8025,1.8029,1.8047,1.8001,1.7996,1.7992,1.7976,1.8034,1.8035,1.8091,1.8091,1.8092]},{"header":{"parameterUnit":"m.s-1","parameterCategory":1,"la1":30.2991,"la2":30.254,"lo1":-89.0895,"lo2":-89.0444,"dy":0.0017,"dx":0.0017,"nx":28,"ny":28,"refTime":"2025-07-06T21:00:00:Z","depth":0,"parameterNumber":3,"parameterNumberName":"V-component_of_WINDS"},"data":[0,0,0,0,0,0,0,0,0,0,0,0,0,0,0,0,0,0,0,0,0,0,0,0,0,0,0,0,0,0,0,0,0,0,0,0,0,0,0,0,0,0,0,0,0,0,0,0,0,0,0,0,0,0,0,0,0,0,3.8881,3.8881,0,3.8863,3.8863,3.8863,3.8861,3.8861,3.8862,3.8862,3.884,3.8839,3.8838,0,0,0,0,0,0,0,0,0,0,0,0,0,3.8911,3.891,3.8881,3.8881,3.888,3.8863,3.8863,3.8862,3.8861,3.8861,3.8862,3.8862,3.884,3.8839,3.8838,0,0,0,0,0,0,0,0,0,0,0,0,0,3.8896,3.891,3.8881,3.8878,3.8877,3.8863,3.8863,3.8862,3.8861,3.8861,3.8862,3.8862,3.884,3.8839,3.8838,3.8824,0,0,3.8834,3.8834,0,0,0,0,0,0,0,0,3.8896,3.8895,3.8878,3.8878,3.8877,3.8865,3.8865,3.885,3.8861,3.8867,3.8862,3.8862,3.8847,3.8846,3.8842,3.8823,3.8822,3.8834,3.8833,3.8833,3.8833,0,0,0,0,0,0,0,3.8898,3.8895,3.8874,3.8878,3.8878,3.8876,3.8874,3.8862,3.8856,3.8867,3.8866,3.8865,3.8847,3.8843,3.8841,3.8822,3.8834,3.8833,3.8832,3.8832,3.8792,3.8791,0,0,0,0,0,0,3.89,3.8896,3.8874,3.8873,3.8888,3.8875,3.8873,3.8868,3.8856,3.8854,3.8864,3.8865,3.8845,3.8842,3.884,3.8823,3.8833,3.8832,3.8831,3.8792,3.8792,3.8791,0,0,0,0,0,0,3.89,3.8898,3.8875,3.8885,3.8882,3.8875,3.8869,3.8868,3.8863,3.8854,3.8853,3.8861,3.8845,3.8842,3.8829,3.8823,3.8831,3.883,3.8792,3.8792,3.8791,3.879,0,0,0,0,0,0,3.8901,3.8898,3.8894,3.8885,3.8881,3.8865,3.8869,3.8867,3.8862,3.8862,3.8851,3.8849,3.8845,3.883,3.8827,3.8821,3.8829,3.8793,3.8792,3.8792,3.879,3.8789,3.8788,0,0,0,0,0,3.8902,3.8893,3.8893,3.8891,3.8876,3.8864,3.8862,3.8858,3.8861,3.8856,3.885,3.8849,3.8824,3.8829,3.8826,3.8819,3.8793,3.8792,3.8792,3.8791,3.879,3.8789,0,0,0,0,0,0,3.89,3.8892,3.8892,3.888,3.8873,3.8864,3.8858,3.8857,3.8848,3.8849,3.8843,3.8841,3.8828,3.8822,3.8828,3.8805,3.8809,3.8807,3.8809,3.8808,3.8807,3.8808,3.8828,0,0,0,0,0,3.8899,3.8891,3.8884,3.8874,3.8871,3.8865,3.886,3.8858,3.885,3.8846,3.8839,3.8831,3.8821,3.8814,3.8804,3.879,3.8787,3.8784,3.8783,3.8782,3.878,3.8772,3.877,3.8788,3.8788,3.8788,0,0,3.8895,3.8889,3.8885,3.8873,3.8868,3.8859,3.8862,3.8853,3.8846,3.8844,3.8832,3.8826,3.8816,3.8802,3.8796,3.8797,3.8775,3.8781,3.878,3.8779,3.8771,3.8769,3.8767,3.8788,3.8788,3.8788,0,0,3.8883,3.8879,3.887,3.8864,3.8856,3.8853,3.8851,3.8842,3.8839,3.8826,3.8825,3.8816,3.8799,3.8792,3.8786,3.8772,3.8771,3.8769,3.8764,3.8755,3.8754,3.8753,3.8747,3.8745,3.8768,3.8768,3.8768,0,3.8879,3.8867,3.8865,3.8856,3.8851,3.885,3.884,3.8835,3.8824,3.8819,3.8822,3.8801,3.8794,3.8778,3.8775,3.877,3.8767,3.877,3.8755,3.8753,3.8752,3.8746,3.8745,3.8768,3.8768,3.8768,3.8768,0,3.8862,3.8854,3.8847,3.8838,3.8832,3.8823,3.8818,3.8812,3.8811,3.8806,3.8793,3.8785,3.8774,3.877,3.8768,3.8754,3.8755,3.8756,3.8759,3.875,3.8745,3.8743,3.8767,3.8767,3.8767,3.8767,0,0,3.8848,3.8838,3.8836,3.8831,3.8823,3.8816,3.8806,3.8796,3.8791,3.8783,3.8774,3.876,3.8761,3.8755,3.8752,3.8745,3.8734,3.8746,3.8746,3.8744,3.8717,3.8716,3.8714,3.8733,3.8733,3.8732,3.8718,0,3.8835,3.8819,3.8817,3.8803,3.8795,3.8794,3.8786,3.8779,3.8775,3.8766,3.8761,3.8751,3.8754,3.875,3.8743,3.8736,3.8728,3.8738,3.8723,3.8723,3.8726,3.8711,3.871,3.8696,3.8716,3.8715,3.8715,0,3.8818,3.8811,3.8796,3.8789,3.8785,3.8778,3.8768,3.8761,3.8753,3.875,3.8743,3.8741,3.873,3.8735,3.8719,3.8725,3.872,3.8716,3.8715,3.8713,3.8718,3.8708,3.8692,3.869,3.8712,3.8712,3.8712,0,3.8808,3.8795,3.8785,3.8781,3.8772,3.8767,3.8763,3.8755,3.8749,3.8741,3.8737,3.8727,3.8721,3.8713,3.8708,3.8712,3.8692,3.8696,3.8689,3.8689,3.8684,3.8684,3.8666,3.8681,3.8681,3.8681,3.8681,0,3.8794,3.8784,3.878,3.8774,3.8763,3.8761,3.875,3.8745,3.8739,3.8731,3.8729,3.8721,3.8716,3.8706,3.8702,3.8689,3.8687,3.8684,3.8682,3.8683,3.8684,3.8679,3.8679,3.8681,3.8681,3.8681,3.8681,0,3.8781,3.8778,3.8766,3.876,3.8758,3.875,3.8743,3.8736,3.8733,3.8722,3.872,3.8713,3.8702,3.8697,3.8683,3.868,3.8666,3.8665,3.8669,3.8668,3.8661,3.8661,3.8638,3.8635,3.8653,3.8653,3.8653,0,3.8772,3.8765,3.8757,3.8752,3.8749,3.874,3.8735,3.8732,3.8726,3.8717,3.871,3.87,3.8692,3.8674,3.8667,3.8657,3.8656,3.8649,3.8654,3.8655,3.8655,3.8655,3.8654,3.8647,3.8647,3.8647,3.8647,0,3.8755,3.8754,3.8747,3.8739,3.8733,3.8726,3.872,3.8715,3.8711,3.8705,3.8694,3.8688,3.8675,3.8664,3.8653,3.8647,3.8646,3.8645,3.8643,3.8643,3.8645,3.8644,3.8665,3.8646,3.8646,3.8646,3.8646,3.8646,3.8743,3.8737,3.8731,3.8723,3.8718,3.8712,3.8705,3.8701,3.8693,3.8683,3.8681,3.867,3.8662,3.8647,3.8642,3.8632,3.8633,3.863,3.8629,3.8628,3.8627,3.8648,3.863,3.863,3.863,3.863,3.863,0,3.8726,3.8722,3.8715,3.8707,3.87,3.8701,3.8694,3.8688,3.8679,3.8672,3.8664,3.8652,3.8642,3.8635,3.8624,3.8618,3.8617,3.8615,3.8615,3.8614,3.8627,3.863,3.8616,3.8616,3.8616,3.8616,3.8616,3.8616,3.8716,3.8706,3.8704,3.8691,3.8687,3.8677,3.8673,3.8667,3.8662,3.8649,3.8641,3.8637,3.863,3.8619,3.8609,3.8607,3.8603,3.8601,3.8599,3.8611,3.8613,3.8614,3.8617,3.86,3.86,3.8586,3.8586,3.8586]}]]